Flag for U.S.A. Weather past 2 weeks in Durango, Colorado, U.S.A.

Now
18 °F

Clear.


Feels Like: 18 °F
Forecast: 15 / 47 °F
Wind: No wind

Location: Durango-La Plata County Airport

Current Time: Mar 6, 2015 at 4:32:27 AM

Latest Report: Mar 6, 2015 at 3:53 AM


Visibility: 10 mi

Pressure: 30.45 "Hg

Humidity: 80%

Dew point: 13 °F

Location of DurangoLocation

Historic Weather in Durango — Graph

°F

Durango temperature yesterday

Maximum temperature yesterday: 40 °F (at 3:53 PM)
Minimum temperature yesterday: 9 °F (at 6:53 AM)
Average temperature yesterday: 25 °F

Past Weeks' High & Low Weather Summary

 TemperatureHumidityPressure
High59 °F (Feb 19, 2:53 PM)100% (Feb 22, 7:53 AM)30.53 "Hg (Feb 22, 7:53 AM)
Low9 °F (Mar 5, 6:53 AM)18% (Feb 19, 2:53 PM)29.77 "Hg (Feb 27, 4:00 PM)
Average30 °F76%30.03 "Hg
* Reported Feb 19 2:53 AM — Mar 6 2:53 AM, Durango, Weather by CustomWeather, © 2015

Note: Actual official high and low records may vary slightly from our data, if they occured in-between our weather recording intervals... More about our weather records

Advertising

Durango weather history for previous 24 hours

 ConditionsComfort  
Time TempWeatherWind HumidityBarometerVisibility
2:53 AM
Fri, Mar 6
20 °FClear.6 mph74%30.46 "Hg10 mi
1:53 AM21 °FClear.5 mph71%30.49 "Hg10 mi
12:53 AM23 °FClear.6 mph68%30.48 "Hg10 mi
11:53 PM
Thu, Mar 5
24 °FClear.3 mph68%30.48 "Hg10 mi
10:53 PM24 °FClear.5 mph71%30.51 "Hg10 mi
9:53 PM24 °FClear.No wind71%30.52 "Hg10 mi
8:53 PM26 °FClear.5 mph66%30.52 "Hg10 mi
7:53 PM26 °FClear.No wind69%30.53 "Hg10 mi
6:53 PM32 °FClear.No wind52%30.51 "Hg10 mi
5:53 PM40 °FSunny.3 mph32%30.46 "Hg10 mi
4:53 PM37 °FSunny.9 mph46%30.45 "Hg10 mi
3:53 PM40 °FSunny.12 mph36%30.42 "Hg10 mi
2:53 PM39 °FSunny.5 mph34%30.42 "Hg10 mi
1:53 PM35 °FSunny.7 mph36%30.45 "Hg10 mi
12:53 PM35 °FSunny.3 mph34%30.47 "Hg10 mi
11:53 AM33 °FSunny.5 mph33%30.51 "Hg10 mi
10:53 AM28 °FSunny.5 mph43%30.52 "Hg10 mi
9:53 AM25 °FSunny.No wind42%30.52 "Hg10 mi
8:53 AM19 °FSunny.No wind57%30.53 "Hg10 mi
7:53 AM15 °FSunny.No wind58%30.53 "Hg10 mi
6:53 AM9 °FSunny.No wind80%30.53 "Hg10 mi
5:53 AM10 °FClear.5 mph73%30.49 "Hg10 mi
4:53 AM10 °FClear.6 mph73%30.45 "Hg10 mi
Weather by CustomWeather, © 2015

See weather overviewHow to use our weather pages